Regional Weather Roundup
Issued by NWS State College, PA

Home | Current Version | Previous Version | Graphics & Text | Print | Product List | Glossary On
Versions: 1 2 3 4 5 6 7 8 9 10 11 12 13 14 15 16 17 18 19 20 21 22 23 24 25 26 27 28 29 30 31 32 33 34 35 36 37 38 39 40 41 42 43 44 45 46 47 48 49 50
000
ASUS41 KCTP 162310
RWRCTP

REGIONAL WEATHER ROUNDUP
NATIONAL WEATHER SERVICE STATE COLLEGE PA
700 PM EDT WED AUG 16 2017

Note: "fair" indicates few or no clouds below 12,000 feet with no
significant weather and/or obstructions to visibility.

* = STATION THAT DOES NOT REPORT PRECIPITATION /E.G. RAIN...SNOW...ETC/
    THUNDER OR FOG.

PAZ002>004-007>009-013>016-020>023-029>032-170000-
WESTERN PENNSYLVANIA

CITY           SKY/WX    TMP DP  RH WIND       PRES   REMARKS
ERIE           SUNNY     77  55  46 N7        30.04F
MEADVILLE      SUNNY     77  55  46 N5        30.06F
FRANKLIN*      SUNNY     77  54  44 CALM      30.07S
NEW CASTLE     FAIR      80  60  50 NE6       30.04F
BEAVER COUNTY  SUNNY     81  57  44 NE5       30.04F
BUTLER*        SUNNY     79  59  50 N5        30.04F
PITTSBURGH INT MOSUNNY   83  60  45 NE8       30.03F
PITTSBURGH     SUNNY     82  57  42 VRB5      30.03F
INDIANA*       SUNNY     81  59  47 NW7       30.07F
LATROBE        SUNNY     81  61  50 VRB6      30.04
WASHINGTON CO* SUNNY     81  63  54 N5        30.04S
$$

PAZ004>006-010>012-017>019-024>028-033>037-041-042-045-046-049>053-170000-
CENTRAL PENNSYLVANIA

CITY           SKY/WX    TMP DP  RH WIND       PRES   REMARKS
BRADFORD       SUNNY     72  60  66 CALM      30.09S
DUBOIS         MOSUNNY   76  53  44 W7        30.06F
CLEARFIELD     SUNNY     81  55  40 NW8       30.05F
JOHNSTOWN      SUNNY     77  58  51 NW7       30.09F
ALTOONA        SUNNY     79  59  50 NW6       30.06S
STATE COLLEGE  MOSUNNY   81  59  47 NW5       30.04S
WILLIAMSPORT   MOSUNNY   78  66  66 CALM      29.99S
SELINSGROVE    PTSUNNY   80  68  66 NW3       30.00S
FT INDIANTOWN  SUNNY     82  67  60 CALM      30.00S
CAPITAL CITY   SUNNY     86  58  38 N3        29.99S
HARRISBURG     MOSUNNY   81  70  69 CALM      29.98S
YORK           SUNNY     83  65  54 N3        30.00S
$$

PAZ038>040-043-044-047-048-054-055-060>062-067>071-170000-
EASTERN PENNSYLVANIA

CITY           SKY/WX    TMP DP  RH WIND       PRES   REMARKS
SCRANTON       SUNNY     79  57  46 NW6       30.03S
MOUNT POCONO   CLEAR     73  59  61 NW5       30.06S
ALLENTOWN      CLOUDY    81  64  56 CALM      29.99R
QUAKERTOWN*    CLEAR     81  64  57 N5        30.01R
READING        MOSUNNY   83  67  58 N3        29.98R
LANCASTER      SUNNY     82  67  60 NW3       29.99S
COATESVILLE    PTCLDY    81  64  57 NW6       30.02S
POTTSTOWN      PTCLDY    82  65  56 NE3       30.00S
BLUE BELL      MOCLDY    81  66  61 CALM      30.00R
DOYLESTOWN     CLEAR     81  64  56 N5        29.99R
WILLOW GROVE   NOT AVBL
NORTH PHILA    CLEAR     83  67  58 NE6       29.99R
PHILADELPHIA   PTCLDY    85  61  44 N8        29.97R
$$



USA.gov is the U.S. government's official web portal to all federal, state and local government web resources and services.